Weather History for Missoula, MT

Change the Weather History Date:

Friday, December 7, 2012

  Actual Average Record
Temperature  
Mean Temperature 32 °F 25 °F  
Max Temperature 37 °F 32 °F 47 °F (1925)
Min Temperature 26 °F 18 °F -16 °F (2005)
Degree Days  
Heating Degree Days 33 40  
Month to date heating degree days 190 275  
Since 1 July heating degree days 1845 2171  
Cooling Degree Days 0 0  
Month to date cooling degree days 0 0  
Year to date cooling degree days 415 332  
Moisture  
Dew Point 28 °F    
Average Humidity 78    
Maximum Humidity 92    
Minimum Humidity 64    
Precipitation  
Precipitation 0.25 in 0.03 in 0.44 in (1917)
Month to date precipitation 1.09 0.24  
Year to date precipitation 14.74 13.33  
Snow  
Snow 7.70 in - - ()
Month to date snowfall 7.7  
Year to date snowfall 42.3  
Since 1 July snowfall 13.1  
Snow Depth 7.00 in    
Sea Level Pressure  
Sea Level Pressure 29.81 in    
Wind  
Wind Speed 8 mph (WSW)    
Max Wind Speed 33 mph    
Max Gust Speed 44 mph    
Visibility 4 miles    
Events Fog , Snow    
T = Trace of Precipitation, MM = Missing Value Source: NWS Daily Summary

Daily Weather History Graph

Daily Weather History Graph

Search for Another Location

Airport:

Trip Planner

Search our weather history database for the weather conditions in past years. The results will help you decide how hot, cold, wet, or windy it might be!

Date:

Astronomy

Dec. 07, 2012 Rise Set
Actual Time 8:08 AM MST 4:47 PM MST
Civil Twilight 7:33 AM MST 5:22 PM MST
Nautical Twilight 6:54 AM MST 6:01 PM MST
Astronomical Twilight 6:18 AM MST 6:37 PM MST
Moon 1:10 AM MST (12/7) 1:05 PM MST (12/7)
Length of Visible Light 9h 49m
Length of Day
8h 39m
Last Quarter, 38% of the Moon is Illuminated
Dec 7
Last Quarter
Dec 13
New
Dec 19
First Quarter
Dec 28
Full
Jan 4
Last Quarter

Hourly Weather History & Observations

Time (MST) Temp. Windchill Dew Point Humidity Pressure Visibility Wind Dir Wind Speed Gust Speed Precip Events Conditions
12:03 AM 30.2 °F 23.4 °F 26.6 °F 86% 29.93 in 10.0 mi ESE 6.9 mph - N/A   Mostly Cloudy
12:53 AM 30.0 °F 26.5 °F 28.0 °F 92% 30.01 in 10.0 mi ESE 3.5 mph - N/A   Overcast
1:53 AM 30.9 °F - 28.0 °F 89% 30.01 in 10.0 mi Calm Calm - N/A   Overcast
2:11 AM 30.2 °F 26.7 °F 28.4 °F 93% 29.93 in 10.0 mi SE 3.5 mph - N/A   Overcast
2:53 AM 30.9 °F - 28.0 °F 89% 30.02 in 10.0 mi Calm Calm - N/A   Overcast
3:53 AM 28.0 °F - 26.1 °F 92% 30.03 in 4.0 mi Calm Calm - N/A   Mostly Cloudy
4:35 AM 28.4 °F - 26.6 °F 93% 29.93 in 2.5 mi Calm Calm - 0.00 in Snow Light Snow
4:39 AM 28.4 °F 24.6 °F 26.6 °F 93% 29.93 in 1.2 mi NNW 3.5 mph - 0.00 in Snow Light Snow
4:49 AM 28.4 °F - 26.6 °F 93% 29.94 in 2.0 mi Calm Calm - 0.01 in Snow Light Snow
4:53 AM 28.9 °F 25.2 °F 27.0 °F 92% 30.03 in 5.0 mi Variable 3.5 mph - 0.01 in Snow Light Snow
5:53 AM 28.0 °F - 26.1 °F 92% 30.04 in 10.0 mi Calm Calm - 0.00 in   Overcast
6:53 AM 30.9 °F 27.5 °F 27.0 °F 85% 30.05 in 10.0 mi East 3.5 mph - N/A   Overcast
7:53 AM 30.0 °F 24.1 °F 27.0 °F 88% 30.06 in 10.0 mi SE 5.8 mph - N/A   Mostly Cloudy
8:53 AM 28.9 °F - 26.1 °F 89% 30.05 in 10.0 mi Calm Calm - N/A   Overcast
9:53 AM 32.0 °F 27.5 °F 27.0 °F 82% 30.04 in 10.0 mi ESE 4.6 mph - N/A   Overcast
10:53 AM 32.0 °F 25.6 °F 28.0 °F 85% 30.04 in 10.0 mi SSE 6.9 mph - N/A   Overcast
11:53 AM 35.1 °F 29.3 °F 26.1 °F 70% 29.98 in 10.0 mi SE 6.9 mph - N/A   Mostly Cloudy
12:53 PM 36.0 °F 29.0 °F 24.1 °F 62% 29.94 in 10.0 mi SSE 9.2 mph - N/A   Overcast
1:53 PM 36.0 °F 28.5 °F 25.0 °F 64% 29.89 in 10.0 mi South 10.4 mph - N/A   Mostly Cloudy
2:53 PM 37.0 °F 29.3 °F 26.1 °F 65% 29.86 in 10.0 mi SSE 11.5 mph - N/A   Overcast
3:53 PM 36.0 °F 31.1 °F 28.0 °F 73% 29.84 in 8.0 mi SSW 5.8 mph - N/A   Overcast
4:04 PM 35.6 °F 26.2 °F 28.4 °F 75% 29.76 in 3.0 mi SSE 15.0 mph - 0.00 in Snow Light Snow
4:11 PM 35.6 °F 26.6 °F 28.4 °F 75% 29.76 in 2.5 mi SSE 13.8 mph - 0.00 in Snow Light Snow
4:24 PM 33.8 °F 22.8 °F 30.2 °F 87% 29.76 in 1.0 mi SSE 18.4 mph - 0.00 in Snow Light Snow
4:51 PM 33.8 °F 23.9 °F 30.2 °F 87% 29.74 in 3.0 mi SSE 15.0 mph - 0.00 in Snow Light Snow
4:53 PM 33.1 °F 23.4 °F 30.0 °F 89% 29.82 in 5.0 mi SE 13.8 mph - 0.00 in Snow Light Snow
5:38 PM 33.8 °F 23.9 °F 30.2 °F 87% 29.72 in 2.5 mi South 15.0 mph - 0.00 in Snow Light Snow
5:41 PM 33.8 °F 24.3 °F 30.2 °F 87% 29.73 in 1.2 mi South 13.8 mph - 0.00 in Snow Light Snow
5:43 PM 33.8 °F 25.3 °F 30.2 °F 87% 29.73 in 1.0 mi South 11.5 mph - 0.00 in Snow Light Snow
5:51 PM 33.8 °F 22.2 °F 30.2 °F 87% 29.73 in 0.5 mi SW 20.7 mph - 0.01 in Fog , Snow Snow
5:52 PM 33.1 °F 21.5 °F 30.9 °F 92% 29.81 in 0.5 mi SW 19.6 mph 23.0 mph 0.01 in Fog , Snow Snow
5:54 PM 32.0 °F 20.8 °F 30.2 °F 93% 29.73 in 0.5 mi SW 17.3 mph - 0.01 in Fog , Snow Snow
6:03 PM 32.0 °F 20.8 °F 32.0 °F 100% 29.72 in 0.5 mi SW 17.3 mph 28.8 mph 0.03 in Fog , Snow Snow
6:19 PM 33.8 °F 22.8 °F 30.2 °F 87% 29.72 in 1.2 mi West 18.4 mph 28.8 mph 0.05 in Snow Light Snow
6:24 PM 33.8 °F 24.3 °F 30.2 °F 87% 29.72 in 2.0 mi West 13.8 mph 28.8 mph 0.06 in Snow Light Snow
6:28 PM 33.8 °F 27.7 °F 30.2 °F 87% 29.72 in 3.0 mi West 6.9 mph 23.0 mph 0.06 in Snow Light Snow
6:43 PM 33.8 °F - 30.2 °F 87% 29.71 in 8.0 mi Calm Calm - 0.06 in Snow Light Snow
6:53 PM 33.1 °F 26.9 °F 28.9 °F 85% 29.79 in 10.0 mi SSE 6.9 mph - 0.06 in   Overcast
7:03 PM 32.0 °F 27.5 °F 30.2 °F 93% 29.72 in 5.0 mi South 4.6 mph - 0.00 in Snow Light Snow
7:06 PM 32.0 °F 28.7 °F 30.2 °F 93% 29.72 in 2.5 mi West 3.5 mph - 0.00 in Snow Light Snow
7:09 PM 32.0 °F - 30.2 °F 93% 29.72 in 1.2 mi Calm Calm - 0.00 in Snow Light Snow
7:12 PM 32.0 °F - 30.2 °F 93% 29.71 in 0.8 mi Calm Calm - 0.00 in Snow Light Snow
7:22 PM 32.0 °F 22.5 °F 30.2 °F 93% 29.71 in 0.2 mi NW 12.7 mph 19.6 mph 0.03 in Fog , Snow Heavy Snow
7:36 PM 32.0 °F 20.5 °F 30.2 °F 93% 29.71 in 0.2 mi NW 18.4 mph 25.3 mph N/A Fog , Snow Heavy Snow
7:53 PM 30.9 °F 16.7 °F 30.0 °F 96% 29.78 in 0.2 mi WNW 27.6 mph 32.2 mph 0.09 in Fog , Snow Heavy Snow
8:06 PM 32.0 °F 19.8 °F 30.2 °F 93% 29.70 in 0.8 mi West 20.7 mph 34.5 mph 0.04 in Snow Light Snow
8:08 PM 32.0 °F 20.5 °F 30.2 °F 93% 29.70 in 1.0 mi West 18.4 mph 34.5 mph 0.04 in Snow Light Snow
8:10 PM 32.0 °F 20.5 °F 30.2 °F 93% 29.70 in 1.5 mi WNW 18.4 mph 32.2 mph 0.04 in Snow Light Snow
8:14 PM 32.0 °F 24.8 °F 30.2 °F 93% 29.69 in 2.0 mi NW 8.1 mph 26.5 mph N/A Snow Light Snow
8:23 PM 30.2 °F 26.7 °F 30.2 °F 100% 29.69 in 4.0 mi Variable 3.5 mph - 0.04 in Snow Light Snow
8:53 PM 32.0 °F - 30.0 °F 92% 29.77 in 2.0 mi Calm Calm - 0.04 in Snow Light Snow
9:06 PM 32.0 °F - 30.2 °F 93% 29.69 in 3.0 mi Calm Calm - 0.01 in Snow Light Snow
9:53 PM 28.9 °F 23.9 °F 28.0 °F 96% 29.77 in 10.0 mi ESE 4.6 mph - 0.01 in   Mostly Cloudy
10:11 PM 30.2 °F 23.4 °F 28.4 °F 93% 29.69 in 2.5 mi Variable 6.9 mph - 0.00 in Snow Light Snow
10:15 PM 32.0 °F 23.6 °F 28.4 °F 87% 29.69 in 1.5 mi WNW 10.4 mph 18.4 mph 0.00 in Snow Light Snow
10:22 PM 32.0 °F 23.6 °F 28.4 °F 87% 29.70 in 1.2 mi NW 10.4 mph 18.4 mph 0.00 in Snow Light Snow
10:29 PM 32.0 °F 20.1 °F 26.6 °F 80% 29.70 in 1.5 mi NW 19.6 mph 29.9 mph 0.00 in Snow Light Snow
10:32 PM 30.2 °F 15.4 °F 26.6 °F 86% 29.70 in 1.0 mi NW 28.8 mph 35.7 mph 0.00 in Snow Light Snow
10:36 PM 30.2 °F 14.9 °F 26.6 °F 86% 29.70 in 0.5 mi NW 31.1 mph 40.3 mph 0.00 in Fog , Snow Snow
10:53 PM 28.9 °F 14.0 °F 28.0 °F 96% 29.79 in 0.5 mi NW 27.6 mph 32.2 mph 0.01 in Fog , Snow Snow
11:01 PM 28.4 °F 12.5 °F 26.6 °F 93% 29.71 in 0.2 mi WNW 31.1 mph 43.7 mph 0.00 in Fog , Snow Heavy Snow
11:13 PM 30.2 °F 17.8 °F 28.4 °F 93% 29.71 in 0.2 mi WNW 19.6 mph 26.5 mph 0.01 in Fog , Snow Heavy Snow
11:16 PM 30.2 °F 17.1 °F 28.4 °F 93% 29.72 in 0.5 mi WNW 21.9 mph 26.5 mph 0.01 in Fog , Snow Snow
11:27 PM 28.4 °F 15.4 °F 26.6 °F 93% 29.72 in 0.8 mi WNW 19.6 mph 36.8 mph 0.02 in Snow Light Snow
11:31 PM 30.2 °F 18.1 °F 26.6 °F 86% 29.72 in 1.5 mi WNW 18.4 mph 33.4 mph 0.02 in Snow Light Snow
11:34 PM 30.2 °F 18.5 °F 26.6 °F 86% 29.72 in 3.0 mi WNW 17.3 mph - 0.02 in Snow Light Snow
11:46 PM 30.2 °F 18.1 °F 26.6 °F 86% 29.72 in 7.0 mi NW 18.4 mph - 0.02 in Snow Light Snow
11:53 PM 30.0 °F 16.3 °F 26.1 °F 85% 29.80 in 1.2 mi WNW 24.2 mph - 0.02 in Snow Light Snow
11:56 PM 30.2 °F 17.1 °F 26.6 °F 86% 29.73 in 0.8 mi WNW 21.9 mph - 0.00 in Snow Light Snow